Location: Honea-Egypt Observatory
(30.2769°N, 95.5936°W)
Time: 10:55:40
(UTC-06:00)

X-37B - Visible Passes

Search period start: 02 December 2020 00:00
Search period end: 12 December 2020 00:00
Orbit: 384 x 390 km, 45.0° (Epoch: 26 November)

Date Brightness Start Highest point End Pass type
(mag) Time Alt. Az. Time Alt. Az. Time Alt. Az.
07 Dec 3.0 18:11:39 10° N 18:12:05 10° NNE 18:12:31 10° NNE visible
08 Dec 2.5 18:47:53 10° NNW 18:49:20 20° N 18:49:20 20° N visible
09 Dec 2.5 17:49:51 10° NNW 17:51:50 15° NNE 17:53:49 10° ENE visible
09 Dec 3.3 19:25:33 10° WNW 19:26:20 16° WNW 19:26:20 16° WNW visible
10 Dec 0.8 18:27:02 10° NW 18:30:08 50° NE 18:31:20 30° E visible
11 Dec 2.5 19:05:18 10° WNW 19:08:04 28° SW 19:09:03 23° S visible
